Tracking 31027 objects as of 19-Jul-2025
HD Live streaming from Space Station
objects crossing your sky now

SL-16 DEB

Track SL-16 DEB now!
10-day predictions


NORAD ID: 24284
Int'l Code: 1995-058G
Perigee: 821.4 km
Apogee: 841.7 km
Inclination: 70.9 °
Period: 101.4 minutes
Semi major axis: 7202 km
RCS: 0.041 m2 (small)
Launch date: October 31, 1995
Source: Commonwealth of Independent States (former USSR) (CIS)
Launch site: TYURATAM MISSILE AND SPACE COMPLEX (TTMTR)

Note: This is SATELLITE DEBRIS
Your satellite tracking list
SL-8 DEB
Track 1 satellite(s)




NASA's NSSDC Master Catalog

Two Line Element Set (TLE):
1 24284U 95058G   25198.97202716  .00000045  00000-0  44325-4 0  9997
2 24284  70.8624  34.2590 0014084 276.7263  83.2259 14.20284193536289
Source of the keplerian elements: AFSPC